FW5195 Weather Reports


time (UTC)temp
F
wind
direction
speed
knots
gust
knots
rain 1hr
in
rain 24hr
in
rain mn
in
humidity
%
barometer
mb
20260505023010 79 26 0.0 2.6 0.00 0.02 0.00 70 1013.9
20260505021504 80 114 0.0 2.6 0.00 0.02 0.00 69 1014.3
20260505020003 80 12 0.0 1.7 0.00 0.02 0.00 70 1014.5
20260505014609 79 345 0.0 0.0 0.00 0.02 0.00 69 1014.6
20260505013109 79 68 0.0 2.6 0.00 0.02 0.00 69 1014.8
20260505011557 80 11 0.0 0.9 0.00 0.02 0.00 69 1015.3
20260505010059 79 329 0.0 0.0 0.00 0.02 0.00 68 1015.4
20260505004559 79 217 0.0 0.9 0.00 0.02 0.00 69 1015.5
20260505003055 79 106 0.0 0.0 0.00 0.02 0.00 71 1015.6
20260505001555 78 294 0.0 1.7 0.00 0.02 0.00 73 1015.8
20260505000106 77 351 0.0 0.0 0.00 0.02 0.00 74 1015.8
20260504234547 77 351 0.0 0.0 0.00 0.02 0.00 75 1015.8
20260504233045 76 349 0.0 0.0 0.00 0.02 0.00 78 1015.9
20260504231541 74 319 0.0 0.0 0.00 0.02 0.00 83 1016.0
20260504230046 73 210 0.0 0.0 0.00 0.02 0.00 90 1016.2
20260504224542 71 249 0.0 0.0 0.00 0.04 0.00 94 1016.2
20260504223037 69 264 0.0 0.9 0.00 0.04 0.00 96 1016.2
20260504221544 68 254 0.0 0.9 0.00 0.04 0.00 97 1016.1
20260504220032 67 242 0.0 0.9 0.00 0.04 0.00 97 1016.0
20260504214526 66 204 0.0 0.9 0.00 0.04 0.00 98 1016.1
20260504213024 66 249 0.0 0.9 0.00 0.04 0.00 98 1016.0
20260504211523 65 226 0.0 0.0 0.00 0.04 0.00 98 1015.8
20260504210023 64 278 0.0 0.0 0.00 0.04 0.00 97 1015.7
20260504204522 64 239 0.0 0.0 0.00 0.04 0.00 97 1015.5
20260504203027 64 232 0.0 0.0 0.00 0.04 0.00 97 1015.4
20260504201521 64 238 0.0 0.0 0.00 0.04 0.00 97 1015.3
20260504200020 64 233 0.0 0.0 0.00 0.04 0.00 97 1015.2
20260504194519 64 237 0.0 0.0 0.00 0.05 0.00 97 1015.1
20260504193019 64 232 0.0 0.0 0.00 0.05 0.00 97 1014.9
20260504191517 64 242 0.0 0.0 0.00 0.05 0.00 97 1014.8
20260504190016 64 242 0.0 0.0 0.00 0.05 0.00 97 1014.6
20260504184518 65 242 0.0 0.0 0.00 0.05 0.00 97 1014.6
20260504183014 65 242 0.0 0.0 0.00 0.05 0.00 97 1014.6
20260504181513 65 244 0.0 0.0 0.00 0.05 0.00 97 1014.5
20260504180012 65 237 0.0 0.0 0.00 0.05 0.00 97 1014.5
20260504174513 65 231 0.0 0.0 0.00 0.13 0.00 97 1014.6
20260504173012 65 231 0.0 0.0 0.00 0.13 0.00 97 1014.5
20260504171512 65 232 0.0 0.0 0.00 0.13 0.00 97 1014.5
20260504081550 71 59 0.0 0.0 0.00 0.48 0.40 87 1015.8
20260504044542 78 3 0.0 4.3 0.00 0.48 0.40 76 1014.8
20260504043048 78 355 0.0 3.5 0.00 0.48 0.40 77 1014.7
20260504041541 79 44 0.0 4.3 0.00 0.48 0.40 74 1014.8
20260504040045 79 50 0.0 5.2 0.00 0.48 0.40 74 1015.0
20260504034542 79 29 0.0 4.3 0.00 0.48 0.40 73 1015.0
20260504033039 79 306 0.0 6.1 0.00 0.48 0.40 74 1015.1
20260504031547 79 68 0.9 5.2 0.00 0.48 0.40 73 1015.3
20260504030041 79 23 0.0 6.1 0.00 0.48 0.40 75 1015.4
20260504024549 78 49 0.0 5.2 0.00 0.48 0.40 76 1015.5